BAW451 EGCC-KMCO

Flight info

Callsign BAW451
Flight time 8h 21m
Altitude 36000
Route EKLAD UY53 WAL L10 PENIL M144 BAGSO DCT MALOT/M084F370 NATE RIKAL/N0494F380 N572A TOPPS DCT BEEKN Q97 KALDA Q131 ODAWG/N0476F400 Q131 WAALT Y289 BAHAA DCT HIBAC ALYNA4
Aircraft A35K/H-SDE2E3GHIJ3J4J5LM1ORWXY/LB1D1

Departure

Time 2026-04-24 11:27
Airport Manchester Airport (EGCC)

Arrival

Time 2026-04-24 19:48
Airport Orlando International Airport (KMCO)
Time Latitude Longitude Altitude Speed Heading
2026-04-24 10:47 53.36802 -2.28680 262 ft 0 kts 315°
2026-04-24 11:13 53.36798 -2.28674 261 ft 1 kts 315°
2026-04-24 11:13 53.36791 -2.28662 263 ft 1 kts 315°
2026-04-24 11:13 53.36785 -2.28652 263 ft 1 kts 315°
2026-04-24 11:13 53.36778 -2.28640 266 ft 0 kts 315°
2026-04-24 11:14 53.36771 -2.28627 262 ft 2 kts 304°
2026-04-24 11:14 53.36766 -2.28611 268 ft 2 kts 292°
2026-04-24 11:14 53.36762 -2.28593 263 ft 2 kts 280°
2026-04-24 11:14 53.36761 -2.28574 263 ft 1 kts 268°
2026-04-24 11:15 53.36762 -2.28556 263 ft 2 kts 257°
2026-04-24 11:15 53.36762 -2.28553 263 ft 0 kts 255°
2026-04-24 11:16 53.36760 -2.28556 263 ft 4 kts 244°
2026-04-24 11:16 53.36756 -2.28563 262 ft 0 kts 224°
2026-04-24 11:17 53.36755 -2.28563 262 ft 1 kts 224°
2026-04-24 11:17 53.36743 -2.28585 265 ft 9 kts 226°
2026-04-24 11:17 53.36696 -2.28668 261 ft 10 kts 225°
2026-04-24 11:18 53.36643 -2.28752 261 ft 11 kts 221°
2026-04-24 11:18 53.36597 -2.28749 261 ft 6 kts 152°
2026-04-24 11:18 53.36567 -2.28697 261 ft 7 kts 133°
2026-04-24 11:18 53.36530 -2.28634 261 ft 8 kts 134°
2026-04-24 11:19 53.36487 -2.28560 261 ft 9 kts 134°
2026-04-24 11:19 53.36437 -2.28477 261 ft 11 kts 135°
2026-04-24 11:19 53.36389 -2.28409 261 ft 5 kts 131°
2026-04-24 11:19 53.36363 -2.28357 261 ft 6 kts 131°
2026-04-24 11:20 53.36329 -2.28296 261 ft 8 kts 134°
2026-04-24 11:20 53.36284 -2.28220 261 ft 13 kts 135°
2026-04-24 11:20 53.36217 -2.28105 261 ft 14 kts 135°
2026-04-24 11:20 53.36143 -2.27981 261 ft 15 kts 135°
2026-04-24 11:21 53.36080 -2.27881 261 ft 9 kts 141°
2026-04-24 11:21 53.36021 -2.27838 261 ft 10 kts 168°
2026-04-24 11:21 53.35950 -2.27837 261 ft 10 kts 187°
2026-04-24 11:21 53.35876 -2.27837 261 ft 10 kts 164°
2026-04-24 11:22 53.35830 -2.27769 261 ft 9 kts 133°
2026-04-24 11:22 53.35784 -2.27689 261 ft 10 kts 136°
2026-04-24 11:22 53.35725 -2.27639 261 ft 10 kts 158°
2026-04-24 11:22 53.35663 -2.27584 262 ft 10 kts 142°
2026-04-24 11:23 53.35614 -2.27504 262 ft 6 kts 109°
2026-04-24 11:23 53.35626 -2.27452 261 ft 6 kts 61°
2026-04-24 11:23 53.35656 -2.27378 260 ft 8 kts 52°
2026-04-24 11:23 53.35694 -2.27301 261 ft 9 kts 50°
2026-04-24 11:24 53.35734 -2.27217 261 ft 10 kts 51°
2026-04-24 11:24 53.35780 -2.27122 261 ft 11 kts 52°
2026-04-24 11:24 53.35826 -2.27012 261 ft 12 kts 56°
2026-04-24 11:24 53.35874 -2.26892 261 ft 13 kts 51°
2026-04-24 11:25 53.35927 -2.26770 261 ft 13 kts 57°
2026-04-24 11:25 53.35982 -2.26648 261 ft 14 kts 51°
2026-04-24 11:25 53.36043 -2.26522 261 ft 15 kts 50°
2026-04-24 11:25 53.36113 -2.26375 261 ft 20 kts 56°
2026-04-24 11:26 53.36095 -2.26203 261 ft 15 kts 130°
2026-04-24 11:26 53.36021 -2.26169 262 ft 6 kts 214°
2026-04-24 11:26 53.35997 -2.26209 264 ft 8 kts 226°
2026-04-24 11:26 53.35801 -2.26614 270 ft 86 kts 231°
2026-04-24 11:27 53.35256 -2.27744 254 ft 163 kts 231°
2026-04-24 11:27 53.34448 -2.29397 750 ft 192 kts 231°
2026-04-24 11:27 53.33651 -2.31079 1644 ft 179 kts 232°
2026-04-24 11:27 53.32936 -2.32842 1980 ft 192 kts 245°
2026-04-24 11:28 53.32714 -2.35149 2190 ft 211 kts 270°
2026-04-24 11:28 53.32767 -2.37728 2460 ft 233 kts 272°
2026-04-24 11:28 53.32834 -2.40527 2784 ft 250 kts 270°
2026-04-24 11:28 53.32593 -2.43443 3413 ft 256 kts 255°
2026-04-24 11:29 53.32087 -2.46322 4080 ft 259 kts 252°
2026-04-24 11:29 53.31547 -2.49225 4666 ft 263 kts 253°
2026-04-24 11:29 53.31185 -2.51174 4882 ft 264 kts 253°
2026-04-24 11:29 53.30636 -2.54130 4997 ft 266 kts 253°
2026-04-24 11:30 53.29904 -2.58052 4998 ft 267 kts 253°
2026-04-24 11:30 53.29532 -2.60064 5000 ft 267 kts 253°
2026-04-24 11:30 53.28994 -2.63005 4997 ft 267 kts 253°
2026-04-24 11:30 53.28446 -2.65982 4998 ft 267 kts 253°
2026-04-24 11:31 53.27897 -2.68950 4999 ft 267 kts 253°
2026-04-24 11:31 53.27351 -2.71924 5003 ft 267 kts 253°
2026-04-24 11:31 53.26808 -2.74858 5003 ft 267 kts 253°
2026-04-24 11:31 53.26253 -2.77833 5007 ft 268 kts 252°
2026-04-24 11:32 53.25858 -2.81878 4996 ft 267 kts 275°
2026-04-24 11:32 53.26156 -2.83898 5031 ft 265 kts 294°
2026-04-24 11:32 53.27042 -2.86621 5360 ft 269 kts 303°
2026-04-24 11:32 53.28114 -2.89161 6019 ft 271 kts 307°
2026-04-24 11:33 53.29273 -2.91646 6719 ft 272 kts 308°
2026-04-24 11:33 53.30458 -2.94123 7398 ft 274 kts 308°
2026-04-24 11:33 53.31655 -2.96648 8041 ft 277 kts 308°
2026-04-24 11:33 53.32844 -2.99203 8698 ft 280 kts 307°
2026-04-24 11:34 53.34032 -3.01807 9332 ft 282 kts 307°
2026-04-24 11:34 53.35217 -3.04451 9971 ft 285 kts 306°
2026-04-24 11:34 53.36407 -3.07128 10403 ft 297 kts 306°
2026-04-24 11:34 53.37673 -3.09987 10647 ft 313 kts 306°
2026-04-24 11:35 53.39007 -3.13003 10908 ft 329 kts 306°
2026-04-24 11:35 53.40402 -3.16169 11152 ft 345 kts 306°
2026-04-24 11:35 53.41834 -3.19495 11462 ft 356 kts 305°
2026-04-24 11:35 53.43281 -3.22907 11959 ft 360 kts 305°
2026-04-24 11:36 53.44737 -3.26357 12507 ft 363 kts 305°
2026-04-24 11:36 53.46191 -3.29803 13026 ft 366 kts 305°
2026-04-24 11:36 53.47671 -3.33305 13555 ft 369 kts 305°
2026-04-24 11:36 53.49168 -3.36844 14062 ft 372 kts 305°
2026-04-24 11:37 53.50681 -3.40417 14577 ft 375 kts 305°
2026-04-24 11:37 53.52183 -3.43968 15072 ft 378 kts 305°
2026-04-24 11:37 53.53711 -3.47583 15547 ft 381 kts 305°
2026-04-24 11:37 53.55253 -3.51236 16049 ft 383 kts 305°
2026-04-24 11:38 53.56806 -3.54924 16523 ft 386 kts 305°
2026-04-24 11:38 53.58364 -3.58625 16993 ft 389 kts 305°
2026-04-24 11:38 53.59890 -3.62404 17450 ft 392 kts 301°
2026-04-24 11:38 53.61075 -3.66557 17889 ft 394 kts 289°
2026-04-24 11:39 53.61732 -3.70989 18323 ft 396 kts 279°
2026-04-24 11:39 53.62111 -3.75618 18761 ft 399 kts 276°
2026-04-24 11:39 53.62348 -3.80304 19187 ft 401 kts 274°
2026-04-24 11:39 53.62515 -3.85017 19613 ft 404 kts 273°
2026-04-24 11:40 53.62662 -3.89773 20017 ft 407 kts 273°
2026-04-24 11:40 53.62810 -3.94490 20421 ft 409 kts 273°
2026-04-24 11:40 53.62977 -3.99298 20826 ft 411 kts 273°
2026-04-24 11:40 53.63154 -4.04136 21220 ft 414 kts 274°
2026-04-24 11:41 53.63338 -4.09003 21618 ft 416 kts 274°
2026-04-24 11:41 53.63529 -4.13892 21994 ft 419 kts 274°
2026-04-24 11:41 53.63720 -4.18814 22361 ft 421 kts 274°
2026-04-24 11:41 53.63905 -4.23687 22726 ft 423 kts 274°
2026-04-24 11:42 53.64092 -4.28663 23089 ft 426 kts 274°
2026-04-24 11:42 53.64279 -4.33677 23454 ft 428 kts 274°
2026-04-24 11:42 53.64467 -4.38716 23801 ft 430 kts 274°
2026-04-24 11:42 53.64651 -4.43757 24146 ft 432 kts 273°
2026-04-24 11:43 53.64832 -4.48766 24481 ft 435 kts 273°
2026-04-24 11:43 53.65014 -4.53881 24819 ft 437 kts 273°
2026-04-24 11:43 53.65192 -4.59015 25150 ft 439 kts 273°
2026-04-24 11:43 53.65368 -4.64190 25478 ft 441 kts 273°
2026-04-24 11:44 53.65543 -4.69372 25819 ft 444 kts 273°
2026-04-24 11:44 53.65715 -4.74525 26127 ft 446 kts 273°
2026-04-24 11:44 53.65890 -4.79778 26451 ft 448 kts 273°
2026-04-24 11:44 53.66063 -4.85051 26774 ft 450 kts 273°
2026-04-24 11:45 53.66239 -4.90338 27086 ft 452 kts 273°
2026-04-24 11:45 53.66412 -4.95652 27409 ft 455 kts 273°
2026-04-24 11:45 53.66580 -5.00929 27712 ft 457 kts 273°
2026-04-24 11:45 53.66748 -5.06298 28031 ft 459 kts 273°
2026-04-24 11:46 53.66915 -5.11700 28339 ft 461 kts 273°
2026-04-24 11:46 53.67083 -5.17131 28648 ft 463 kts 273°
2026-04-24 11:46 53.67248 -5.22581 28942 ft 466 kts 273°
2026-04-24 11:46 53.67404 -5.27993 29233 ft 468 kts 272°
2026-04-24 11:47 53.67558 -5.33488 29525 ft 470 kts 272°
2026-04-24 11:47 53.67710 -5.39015 29818 ft 472 kts 272°
2026-04-24 11:47 53.67861 -5.44562 30097 ft 474 kts 272°
2026-04-24 11:47 53.67933 -5.50141 30382 ft 476 kts 268°
2026-04-24 11:48 53.67823 -5.55679 30639 ft 478 kts 268°
2026-04-24 11:48 53.67671 -5.61295 30903 ft 480 kts 267°
2026-04-24 11:48 53.67493 -5.66931 31165 ft 482 kts 266°
2026-04-24 11:48 53.67303 -5.72591 31409 ft 484 kts 266°
2026-04-24 11:49 53.67105 -5.78291 31645 ft 485 kts 266°
2026-04-24 11:49 53.66909 -5.83918 31883 ft 487 kts 266°
2026-04-24 11:49 53.66709 -5.89644 32122 ft 489 kts 266°
2026-04-24 11:49 53.66508 -5.95377 32421 ft 488 kts 266°
2026-04-24 11:50 53.66306 -6.01077 32761 ft 487 kts 266°
2026-04-24 11:50 53.66103 -6.06776 33080 ft 486 kts 266°
2026-04-24 11:50 53.65898 -6.12471 33382 ft 485 kts 266°
2026-04-24 11:50 53.65690 -6.18163 33687 ft 485 kts 266°
2026-04-24 11:51 53.65479 -6.23848 33977 ft 484 kts 266°
2026-04-24 11:51 53.65269 -6.29454 34266 ft 484 kts 266°
2026-04-24 11:51 53.65053 -6.35125 34544 ft 483 kts 266°
2026-04-24 11:51 53.64836 -6.40773 34803 ft 483 kts 266°
2026-04-24 11:52 53.64615 -6.46434 35091 ft 482 kts 266°
2026-04-24 11:52 53.64392 -6.52096 35377 ft 482 kts 266°
2026-04-24 11:52 53.64170 -6.57661 35640 ft 481 kts 266°
2026-04-24 11:52 53.63943 -6.63285 35889 ft 481 kts 266°
2026-04-24 11:53 53.63712 -6.68942 35994 ft 484 kts 266°
2026-04-24 11:53 53.63476 -6.74643 36000 ft 488 kts 266°
2026-04-24 11:53 53.62996 -6.86050 36002 ft 487 kts 266°
2026-04-24 11:54 53.62509 -6.97373 36003 ft 487 kts 266°
2026-04-24 11:54 53.62009 -7.08760 36002 ft 487 kts 265°
2026-04-24 11:55 53.61498 -7.20133 36002 ft 487 kts 265°
2026-04-24 11:55 53.60978 -7.31466 35998 ft 487 kts 265°
2026-04-24 11:56 53.60444 -7.42845 36001 ft 487 kts 265°
2026-04-24 11:56 53.59901 -7.54218 36000 ft 487 kts 265°
2026-04-24 11:57 53.59350 -7.65509 36000 ft 487 kts 265°
2026-04-24 11:57 53.58785 -7.76881 35999 ft 487 kts 265°
2026-04-24 11:58 53.58207 -7.88269 35999 ft 487 kts 265°
2026-04-24 11:58 53.57623 -7.99584 35999 ft 487 kts 265°
2026-04-24 11:59 53.57025 -8.10948 36002 ft 487 kts 265°
2026-04-24 11:59 53.56421 -8.22227 35997 ft 487 kts 265°
2026-04-24 12:00 53.55801 -8.33605 36000 ft 487 kts 265°
2026-04-24 12:00 53.55175 -8.44890 35997 ft 487 kts 264°
2026-04-24 12:01 53.54532 -8.56266 36003 ft 487 kts 264°
2026-04-24 12:01 53.53881 -8.67614 36003 ft 487 kts 264°
2026-04-24 12:02 53.53223 -8.78889 36002 ft 487 kts 264°
2026-04-24 12:02 53.52549 -8.90251 35997 ft 487 kts 264°
2026-04-24 12:03 53.51865 -9.01599 36002 ft 486 kts 264°
2026-04-24 12:03 53.51176 -9.12839 36004 ft 486 kts 264°
2026-04-24 12:04 53.50471 -9.24170 36003 ft 486 kts 264°
2026-04-24 12:04 53.49755 -9.35486 35997 ft 486 kts 264°
2026-04-24 12:05 53.49035 -9.46718 36002 ft 486 kts 264°
2026-04-24 12:05 53.48299 -9.58016 35995 ft 487 kts 264°
2026-04-24 12:06 53.47549 -9.69372 36000 ft 489 kts 263°
2026-04-24 12:06 53.46793 -9.80644 35997 ft 487 kts 263°
2026-04-24 12:07 53.46023 -9.91954 36002 ft 486 kts 263°
2026-04-24 12:07 53.45245 -10.03240 36001 ft 486 kts 263°
2026-04-24 12:08 53.44461 -10.14439 36002 ft 486 kts 263°
2026-04-24 12:08 53.43661 -10.25729 36004 ft 486 kts 263°
2026-04-24 12:09 53.42850 -10.37010 36001 ft 486 kts 263°
2026-04-24 12:09 53.42029 -10.48278 35999 ft 486 kts 263°
2026-04-24 12:10 53.41202 -10.59480 36002 ft 486 kts 263°
2026-04-24 12:11 53.39933 -10.76388 36002 ft 486 kts 263°
2026-04-24 12:11 53.39079 -10.87585 36003 ft 486 kts 263°
2026-04-24 12:12 53.38211 -10.98833 35999 ft 486 kts 262°
2026-04-24 12:12 53.37332 -11.10073 35998 ft 486 kts 262°
2026-04-24 12:13 53.36594 -11.19406 36002 ft 486 kts 262°
2026-04-24 12:13 53.35700 -11.30580 36000 ft 486 kts 262°
2026-04-24 12:14 53.34792 -11.41806 36004 ft 486 kts 262°
2026-04-24 12:14 53.33871 -11.53049 36002 ft 486 kts 262°
2026-04-24 12:15 53.32940 -11.64285 35998 ft 486 kts 262°
2026-04-24 12:15 53.32005 -11.75434 35997 ft 486 kts 262°
2026-04-24 12:16 53.31055 -11.86629 35996 ft 486 kts 262°
2026-04-24 12:16 53.30094 -11.97830 35999 ft 486 kts 262°
2026-04-24 12:17 53.29121 -12.09045 35997 ft 486 kts 262°
2026-04-24 12:17 53.28144 -12.20175 35997 ft 486 kts 262°
2026-04-24 12:18 53.27150 -12.31378 36000 ft 486 kts 261°
2026-04-24 12:18 53.26147 -12.42563 35997 ft 486 kts 261°
2026-04-24 12:19 53.25137 -12.53699 36000 ft 486 kts 261°
2026-04-24 12:19 53.24112 -12.64882 35997 ft 486 kts 261°
2026-04-24 12:20 53.23077 -12.76057 35997 ft 486 kts 261°
2026-04-24 12:20 53.22038 -12.87150 36002 ft 486 kts 261°
2026-04-24 12:21 53.20983 -12.98306 36001 ft 486 kts 261°
2026-04-24 12:21 53.19914 -13.09487 35998 ft 486 kts 261°
2026-04-24 12:22 53.18845 -13.20565 35997 ft 486 kts 261°
2026-04-24 12:22 53.17758 -13.31708 36003 ft 486 kts 261°
2026-04-24 12:23 53.16660 -13.42849 36001 ft 486 kts 261°
2026-04-24 12:23 53.15553 -13.53979 36002 ft 486 kts 261°
2026-04-24 12:24 53.14443 -13.65027 35999 ft 486 kts 260°
2026-04-24 12:24 53.13312 -13.76169 35999 ft 486 kts 260°
2026-04-24 12:25 53.12180 -13.87227 36000 ft 486 kts 260°
2026-04-24 12:25 53.11029 -13.98356 36000 ft 486 kts 260°
2026-04-24 12:26 53.09869 -14.09459 36002 ft 486 kts 260°
2026-04-24 12:26 53.08708 -14.20476 35997 ft 486 kts 260°
2026-04-24 12:27 53.07528 -14.31570 35998 ft 486 kts 260°
2026-04-24 12:27 53.06336 -14.42670 35997 ft 486 kts 260°
2026-04-24 12:28 53.05143 -14.53683 36001 ft 486 kts 259°
2026-04-24 12:28 53.03930 -14.64771 36000 ft 486 kts 259°
2026-04-24 12:29 53.02710 -14.75829 36000 ft 486 kts 259°
2026-04-24 12:29 53.01486 -14.86828 36001 ft 486 kts 259°
2026-04-24 12:30 53.00798 -14.97996 35997 ft 486 kts 272°
2026-04-24 12:30 53.02037 -15.08997 36001 ft 485 kts 288°
2026-04-24 12:31 53.04289 -15.19519 36001 ft 486 kts 290°
2026-04-24 12:31 53.06703 -15.30053 36003 ft 486 kts 290°
2026-04-24 12:32 53.09078 -15.40537 36002 ft 486 kts 290°
2026-04-24 12:32 53.11427 -15.51106 36001 ft 486 kts 290°
2026-04-24 12:33 53.13756 -15.61696 35996 ft 486 kts 290°
2026-04-24 12:33 53.16074 -15.72299 35998 ft 486 kts 290°
2026-04-24 12:34 53.18374 -15.82867 35999 ft 486 kts 290°
2026-04-24 12:34 53.20664 -15.93443 35997 ft 486 kts 290°
2026-04-24 12:35 53.22954 -16.04069 36001 ft 486 kts 289°
2026-04-24 12:35 53.25235 -16.14709 36001 ft 486 kts 289°
2026-04-24 12:36 53.27509 -16.25370 36002 ft 486 kts 289°
2026-04-24 12:36 53.29760 -16.35980 35998 ft 486 kts 289°
2026-04-24 12:37 53.32012 -16.46652 35997 ft 486 kts 289°
2026-04-24 12:37 53.34256 -16.57343 36000 ft 486 kts 289°
2026-04-24 12:38 53.36481 -16.68002 36000 ft 486 kts 289°
2026-04-24 12:38 53.38707 -16.78718 36002 ft 486 kts 289°
2026-04-24 12:39 53.43119 -17.00131 36001 ft 486 kts 289°
2026-04-24 12:40 53.45314 -17.10874 35999 ft 486 kts 289°
2026-04-24 12:40 53.47500 -17.21627 35999 ft 486 kts 289°
2026-04-24 12:41 53.49676 -17.32390 35999 ft 486 kts 288°
2026-04-24 12:41 53.51846 -17.43184 35999 ft 486 kts 288°
2026-04-24 12:42 53.53992 -17.53920 35999 ft 486 kts 288°
2026-04-24 12:42 53.56130 -17.64671 36001 ft 486 kts 288°
2026-04-24 12:43 53.58270 -17.75493 35999 ft 486 kts 288°
2026-04-24 12:43 53.60399 -17.86319 35999 ft 486 kts 288°
2026-04-24 12:44 53.62516 -17.97146 36000 ft 486 kts 288°
2026-04-24 12:44 53.64612 -18.07926 36002 ft 486 kts 288°
2026-04-24 12:45 53.66716 -18.18809 36001 ft 486 kts 288°
2026-04-24 12:45 53.68794 -18.29617 36002 ft 486 kts 288°
2026-04-24 12:46 53.70874 -18.40498 36003 ft 486 kts 288°
2026-04-24 12:46 53.72947 -18.51403 36002 ft 486 kts 288°
2026-04-24 12:47 53.74992 -18.62226 36001 ft 486 kts 287°
2026-04-24 12:47 53.77043 -18.73139 35999 ft 486 kts 287°
2026-04-24 12:48 53.79086 -18.84077 36002 ft 486 kts 287°
2026-04-24 12:48 53.81105 -18.94950 36001 ft 486 kts 287°
2026-04-24 12:49 53.83126 -19.05898 36002 ft 486 kts 287°
2026-04-24 12:49 53.85128 -19.16801 36000 ft 486 kts 287°
2026-04-24 12:50 53.87124 -19.27742 35999 ft 486 kts 287°
2026-04-24 12:50 53.89117 -19.38731 36002 ft 486 kts 287°
2026-04-24 12:51 53.91086 -19.49654 36003 ft 486 kts 287°
2026-04-24 12:51 53.93061 -19.60675 36002 ft 486 kts 287°
2026-04-24 12:52 53.95011 -19.71619 35999 ft 486 kts 287°
2026-04-24 12:52 53.96965 -19.82656 36000 ft 486 kts 287°
2026-04-24 12:53 53.98894 -19.93619 36002 ft 486 kts 286°
2026-04-24 12:53 54.00799 -20.04669 35999 ft 486 kts 285°
2026-04-24 12:54 54.02411 -20.15865 36000 ft 486 kts 283°
2026-04-24 12:54 54.03923 -20.27027 35998 ft 486 kts 283°
2026-04-24 12:55 54.05471 -20.38231 36003 ft 486 kts 283°
2026-04-24 12:55 54.06775 -20.47547 36001 ft 486 kts 283°
2026-04-24 12:56 54.08347 -20.58785 35996 ft 486 kts 283°
2026-04-24 12:56 54.09898 -20.69954 36000 ft 486 kts 283°
2026-04-24 12:57 54.11445 -20.81190 36003 ft 486 kts 283°
2026-04-24 12:57 54.12982 -20.92441 36000 ft 486 kts 283°
2026-04-24 12:58 54.14505 -21.03679 36000 ft 486 kts 283°
2026-04-24 12:58 54.16010 -21.14867 36004 ft 486 kts 283°
2026-04-24 12:59 54.17515 -21.26145 36000 ft 486 kts 283°
2026-04-24 12:59 54.19011 -21.37437 35998 ft 486 kts 282°
2026-04-24 13:00 54.20484 -21.48644 36001 ft 486 kts 282°
2026-04-24 13:00 54.21959 -21.59958 36002 ft 486 kts 282°
2026-04-24 13:01 54.23414 -21.71201 36000 ft 486 kts 282°
2026-04-24 13:01 54.24864 -21.82502 36002 ft 486 kts 282°
2026-04-24 13:02 54.26305 -21.93819 35999 ft 486 kts 282°
2026-04-24 13:02 54.27734 -22.05138 36000 ft 486 kts 282°
2026-04-24 13:03 54.29146 -22.16401 35996 ft 486 kts 282°
2026-04-24 13:03 54.30556 -22.27749 36000 ft 486 kts 282°
2026-04-24 13:04 54.31954 -22.39097 35997 ft 486 kts 282°
2026-04-24 13:04 54.33341 -22.50449 36000 ft 486 kts 282°
2026-04-24 13:05 54.34710 -22.61738 36002 ft 486 kts 282°
2026-04-24 13:05 54.36077 -22.73114 36000 ft 486 kts 281°
2026-04-24 13:06 54.37425 -22.84432 35998 ft 486 kts 281°
2026-04-24 13:06 54.38774 -22.95848 36000 ft 486 kts 281°
2026-04-24 13:07 54.40100 -23.07168 35999 ft 486 kts 281°
2026-04-24 13:07 54.41425 -23.18580 36000 ft 486 kts 281°
2026-04-24 13:08 54.42739 -23.29995 35996 ft 486 kts 281°
2026-04-24 13:08 54.44033 -23.41341 36000 ft 486 kts 281°
2026-04-24 13:09 54.45968 -23.58492 36002 ft 486 kts 281°
2026-04-24 13:09 54.47245 -23.69935 36000 ft 486 kts 281°
2026-04-24 13:10 54.48505 -23.81334 36002 ft 486 kts 281°
2026-04-24 13:10 54.49759 -23.92788 36002 ft 486 kts 281°
2026-04-24 13:11 54.50994 -24.04172 36003 ft 486 kts 280°
2026-04-24 13:11 54.52225 -24.15621 35999 ft 486 kts 280°
2026-04-24 13:12 54.53448 -24.27097 35998 ft 486 kts 280°
2026-04-24 13:12 54.54652 -24.38517 36003 ft 486 kts 280°
2026-04-24 13:13 54.55853 -24.50010 35997 ft 486 kts 280°
2026-04-24 13:13 54.57043 -24.61509 36002 ft 486 kts 280°
2026-04-24 13:14 54.58212 -24.72914 35999 ft 486 kts 280°
2026-04-24 13:14 54.59381 -24.84432 35996 ft 486 kts 279°
2026-04-24 13:15 54.60536 -24.95936 35996 ft 486 kts 279°
2026-04-24 13:15 54.61674 -25.07375 36001 ft 486 kts 279°
2026-04-24 13:16 54.62808 -25.18894 36003 ft 486 kts 279°
2026-04-24 13:16 54.63931 -25.30420 36000 ft 486 kts 279°
2026-04-24 13:17 54.65043 -25.41941 36001 ft 486 kts 279°
2026-04-24 13:17 54.66139 -25.53421 35999 ft 486 kts 279°
2026-04-24 13:18 54.67229 -25.64961 35996 ft 486 kts 279°
2026-04-24 13:18 54.68309 -25.76517 35997 ft 486 kts 279°
2026-04-24 13:19 54.69378 -25.88079 35999 ft 486 kts 279°
2026-04-24 13:19 54.70434 -25.99633 36000 ft 486 kts 279°
2026-04-24 13:20 54.71475 -26.11138 35997 ft 486 kts 279°
2026-04-24 13:20 54.72513 -26.22741 36001 ft 486 kts 278°
2026-04-24 13:21 54.73532 -26.34260 35998 ft 486 kts 278°
2026-04-24 13:21 54.74547 -26.45861 36003 ft 486 kts 278°
2026-04-24 13:22 54.75550 -26.57458 36000 ft 486 kts 278°
2026-04-24 13:22 54.76534 -26.68978 36002 ft 486 kts 278°
2026-04-24 13:23 54.77516 -26.80594 35998 ft 486 kts 278°
2026-04-24 13:23 54.78487 -26.92224 35998 ft 486 kts 278°
2026-04-24 13:24 54.79439 -27.03767 36001 ft 486 kts 278°
2026-04-24 13:24 54.80387 -27.15397 36000 ft 486 kts 278°
2026-04-24 13:25 54.81322 -27.27011 36001 ft 486 kts 278°
2026-04-24 13:25 54.82241 -27.38565 36001 ft 486 kts 278°
2026-04-24 13:26 54.83156 -27.50213 36000 ft 486 kts 277°
2026-04-24 13:26 54.84059 -27.61864 35998 ft 486 kts 277°
2026-04-24 13:27 54.84945 -27.73440 36001 ft 486 kts 277°
2026-04-24 13:27 54.85829 -27.85126 36001 ft 486 kts 277°
2026-04-24 13:28 54.86693 -27.96713 36001 ft 486 kts 277°
2026-04-24 13:28 54.87551 -28.08373 36004 ft 486 kts 277°
2026-04-24 13:29 54.88398 -28.20041 35997 ft 486 kts 277°
2026-04-24 13:29 54.89228 -28.31633 36004 ft 486 kts 277°
2026-04-24 13:30 54.90054 -28.43320 35999 ft 486 kts 277°
2026-04-24 13:30 54.90868 -28.55009 35999 ft 486 kts 277°
2026-04-24 13:31 54.91665 -28.66618 36002 ft 486 kts 277°
2026-04-24 13:31 54.92456 -28.78306 35999 ft 486 kts 276°
2026-04-24 13:32 54.93236 -28.89999 36003 ft 486 kts 276°
2026-04-24 13:32 54.94006 -29.01716 35997 ft 486 kts 276°
2026-04-24 13:33 54.94759 -29.13350 36000 ft 486 kts 276°
2026-04-24 13:33 54.95505 -29.25056 35999 ft 486 kts 276°
2026-04-24 13:34 54.96237 -29.36724 35997 ft 486 kts 276°
2026-04-24 13:34 54.96961 -29.48446 35997 ft 486 kts 276°
2026-04-24 13:35 54.97670 -29.60113 36002 ft 486 kts 276°
2026-04-24 13:35 54.98373 -29.71851 36002 ft 486 kts 276°
2026-04-24 13:36 54.99062 -29.83575 36001 ft 486 kts 276°
2026-04-24 13:36 54.99741 -29.95304 36002 ft 486 kts 276°
2026-04-24 13:37 55.00369 -30.06971 36001 ft 486 kts 274°
2026-04-24 13:37 55.00822 -30.18743 36003 ft 486 kts 273°
2026-04-24 13:38 55.01169 -30.28531 36003 ft 486 kts 274°
2026-04-24 13:38 55.01669 -30.42216 35997 ft 486 kts 274°
2026-04-24 13:39 55.02034 -30.52073 36004 ft 486 kts 274°
2026-04-24 13:39 55.02461 -30.63779 36000 ft 486 kts 274°
2026-04-24 13:40 55.02879 -30.75590 36002 ft 486 kts 273°
2026-04-24 13:40 55.03282 -30.87294 36002 ft 486 kts 273°
2026-04-24 13:41 55.03676 -30.99078 36004 ft 486 kts 273°
2026-04-24 13:41 55.04058 -31.10879 36002 ft 486 kts 273°
2026-04-24 13:42 55.04427 -31.22597 36002 ft 486 kts 273°
2026-04-24 13:42 55.04787 -31.34411 36002 ft 486 kts 273°
2026-04-24 13:43 55.05133 -31.46148 35997 ft 486 kts 273°
2026-04-24 13:43 55.05470 -31.57941 36002 ft 486 kts 272°
2026-04-24 13:44 55.05794 -31.69681 36001 ft 486 kts 272°
2026-04-24 13:44 55.06108 -31.81495 36004 ft 486 kts 272°
2026-04-24 13:45 55.06410 -31.93282 36004 ft 486 kts 272°
2026-04-24 13:45 55.06702 -32.05086 36002 ft 486 kts 272°
2026-04-24 13:46 55.06980 -32.16828 35997 ft 486 kts 272°
2026-04-24 13:46 55.07248 -32.28642 35997 ft 486 kts 272°
2026-04-24 13:47 55.07504 -32.40368 36003 ft 486 kts 272°
2026-04-24 13:47 55.07749 -32.52176 36004 ft 486 kts 272°
2026-04-24 13:48 55.07984 -32.63995 35997 ft 486 kts 272°
2026-04-24 13:48 55.08206 -32.75789 35997 ft 486 kts 272°
2026-04-24 13:49 55.08416 -32.87519 36002 ft 486 kts 271°
2026-04-24 13:49 55.08616 -32.99337 35997 ft 486 kts 271°
2026-04-24 13:50 55.08804 -33.11133 36002 ft 486 kts 271°
2026-04-24 13:50 55.08980 -33.22889 35997 ft 486 kts 271°
2026-04-24 13:51 55.09146 -33.34698 36004 ft 486 kts 271°
2026-04-24 13:51 55.09300 -33.46493 35998 ft 486 kts 271°
2026-04-24 13:52 55.09442 -33.58231 35998 ft 486 kts 271°
2026-04-24 13:52 55.09573 -33.70044 36000 ft 485 kts 271°
2026-04-24 13:53 55.09693 -33.81864 35997 ft 485 kts 271°
2026-04-24 13:53 55.09801 -33.93611 35998 ft 485 kts 271°
2026-04-24 13:54 55.09899 -34.05418 36002 ft 485 kts 271°
2026-04-24 13:54 55.09984 -34.17161 35997 ft 485 kts 270°
2026-04-24 13:55 55.10058 -34.28974 35997 ft 485 kts 270°
2026-04-24 13:55 55.10121 -34.40722 36002 ft 485 kts 270°
2026-04-24 13:56 55.10173 -34.52515 36000 ft 485 kts 270°
2026-04-24 13:56 55.10213 -34.64325 35998 ft 485 kts 270°
2026-04-24 13:57 55.10241 -34.76133 36003 ft 485 kts 270°
2026-04-24 13:57 55.10259 -34.87871 36000 ft 485 kts 270°
2026-04-24 13:58 55.10265 -34.99654 35999 ft 485 kts 270°
2026-04-24 13:58 55.10259 -35.11449 36003 ft 485 kts 270°
2026-04-24 13:59 55.10243 -35.23171 36003 ft 485 kts 270°
2026-04-24 13:59 55.10215 -35.34974 35998 ft 485 kts 270°
2026-04-24 14:00 55.10175 -35.46787 36000 ft 485 kts 269°
2026-04-24 14:00 55.10124 -35.58504 36004 ft 485 kts 269°
2026-04-24 14:01 55.10062 -35.70304 35997 ft 485 kts 269°
2026-04-24 14:01 55.09988 -35.82101 35997 ft 485 kts 269°
2026-04-24 14:02 55.09904 -35.93830 36003 ft 485 kts 269°
2026-04-24 14:02 55.09808 -36.05604 36004 ft 485 kts 269°
2026-04-24 14:03 55.09700 -36.17383 35997 ft 485 kts 269°
2026-04-24 14:03 55.09582 -36.29093 36002 ft 485 kts 269°
2026-04-24 14:04 55.09452 -36.40870 35997 ft 485 kts 269°
2026-04-24 14:04 55.09310 -36.52676 35998 ft 485 kts 269°
2026-04-24 14:05 55.09157 -36.64454 36002 ft 484 kts 269°
2026-04-24 14:05 55.08993 -36.76179 36001 ft 484 kts 268°
2026-04-24 14:06 55.08818 -36.87889 36002 ft 484 kts 268°
2026-04-24 14:06 55.08631 -36.99671 36002 ft 484 kts 268°
2026-04-24 14:07 55.08433 -37.11456 36001 ft 484 kts 268°
2026-04-24 14:07 55.08224 -37.23152 36003 ft 484 kts 268°
2026-04-24 14:08 55.08003 -37.34929 36002 ft 484 kts 268°
2026-04-24 14:08 55.07772 -37.46622 36002 ft 484 kts 268°
2026-04-24 14:09 55.07529 -37.58389 35997 ft 484 kts 268°
2026-04-24 14:09 55.07274 -37.70155 36004 ft 484 kts 268°
2026-04-24 14:10 55.07008 -37.81899 36004 ft 484 kts 268°
2026-04-24 14:10 55.06732 -37.93586 35997 ft 484 kts 268°
2026-04-24 14:11 55.06444 -38.05334 36002 ft 484 kts 267°
2026-04-24 14:12 55.05991 -38.22897 36001 ft 484 kts 267°
2026-04-24 14:12 55.05674 -38.34638 36003 ft 484 kts 267°
2026-04-24 14:13 55.05346 -38.46396 36003 ft 484 kts 267°
2026-04-24 14:13 55.05009 -38.58049 36002 ft 484 kts 267°
2026-04-24 14:14 55.04659 -38.69784 35997 ft 484 kts 267°
2026-04-24 14:14 55.04114 -38.87328 35999 ft 484 kts 266°
2026-04-24 14:15 55.03734 -38.99076 36004 ft 484 kts 266°
2026-04-24 14:15 55.03344 -39.10803 36003 ft 484 kts 266°
2026-04-24 14:16 55.02946 -39.22443 35999 ft 484 kts 266°
2026-04-24 14:17 55.02324 -39.40019 36000 ft 484 kts 266°
2026-04-24 14:17 55.01675 -39.57603 35997 ft 483 kts 266°
2026-04-24 14:18 55.01233 -39.69227 36001 ft 483 kts 266°
2026-04-24 14:18 55.00775 -39.80960 35999 ft 483 kts 266°
2026-04-24 14:19 55.00307 -39.92653 35997 ft 483 kts 266°
2026-04-24 14:19 54.99335 -40.04169 36000 ft 483 kts 257°
2026-04-24 14:20 54.97707 -40.15532 36000 ft 483 kts 255°
2026-04-24 14:20 54.96257 -40.24949 36002 ft 483 kts 255°
2026-04-24 14:21 54.94211 -40.38098 35999 ft 483 kts 255°
2026-04-24 14:21 54.92751 -40.47506 36000 ft 483 kts 255°
2026-04-24 14:22 54.90994 -40.58803 35998 ft 483 kts 255°
2026-04-24 14:23 54.88354 -40.75652 36004 ft 483 kts 255°
2026-04-24 14:23 54.86573 -40.86927 35998 ft 483 kts 255°
2026-04-24 14:24 54.84779 -40.98194 36000 ft 483 kts 255°
2026-04-24 14:24 54.82990 -41.09366 35997 ft 483 kts 254°
2026-04-24 14:25 54.81175 -41.20615 35999 ft 483 kts 254°
2026-04-24 14:25 54.79352 -41.31849 36002 ft 483 kts 254°
2026-04-24 14:26 54.77529 -41.43000 35998 ft 483 kts 254°
2026-04-24 14:26 54.75687 -41.54202 36000 ft 483 kts 254°
2026-04-24 14:27 54.73833 -41.65401 36001 ft 483 kts 254°
2026-04-24 14:27 54.71983 -41.76507 35999 ft 483 kts 254°
2026-04-24 14:28 54.70109 -41.87681 36000 ft 483 kts 254°
2026-04-24 14:28 54.68226 -41.98840 36000 ft 483 kts 253°
2026-04-24 14:29 54.66343 -42.09923 36001 ft 483 kts 253°
2026-04-24 14:29 54.64439 -42.21065 36002 ft 483 kts 253°
2026-04-24 14:30 54.62535 -42.32135 36001 ft 483 kts 253°
2026-04-24 14:30 54.60610 -42.43259 36001 ft 483 kts 253°
2026-04-24 14:31 54.58677 -42.54362 36000 ft 483 kts 253°
2026-04-24 14:31 54.56746 -42.65379 36001 ft 482 kts 253°
2026-04-24 14:32 54.54792 -42.76462 36001 ft 482 kts 253°
2026-04-24 14:32 54.52829 -42.87530 35996 ft 482 kts 253°
2026-04-24 14:33 54.50859 -42.98570 35999 ft 482 kts 253°
2026-04-24 14:33 54.48887 -43.09555 36002 ft 482 kts 253°
2026-04-24 14:34 54.46893 -43.20593 36001 ft 482 kts 253°
2026-04-24 14:34 54.44900 -43.31561 36001 ft 482 kts 252°
2026-04-24 14:35 54.42884 -43.42590 36002 ft 482 kts 252°
2026-04-24 14:35 54.40873 -43.53524 35997 ft 482 kts 252°
2026-04-24 14:36 54.38840 -43.64515 36002 ft 482 kts 252°
2026-04-24 14:36 54.36796 -43.75497 35998 ft 482 kts 252°
2026-04-24 14:37 54.34758 -43.86390 35997 ft 482 kts 252°
2026-04-24 14:37 54.32697 -43.97337 36001 ft 482 kts 252°
2026-04-24 14:38 54.30628 -44.08264 35996 ft 482 kts 252°
2026-04-24 14:38 54.28547 -44.19193 36002 ft 482 kts 252°
2026-04-24 14:39 54.26471 -44.30033 36001 ft 482 kts 252°
2026-04-24 14:39 54.24369 -44.40942 36001 ft 482 kts 252°
2026-04-24 14:40 54.22256 -44.51851 36003 ft 482 kts 251°
2026-04-24 14:40 54.20136 -44.62731 36001 ft 482 kts 251°
2026-04-24 14:41 54.18020 -44.73534 36001 ft 482 kts 251°
2026-04-24 14:41 54.15878 -44.84406 36002 ft 482 kts 251°
2026-04-24 14:42 54.13743 -44.95183 36000 ft 482 kts 251°
2026-04-24 14:42 54.11583 -45.06021 35998 ft 482 kts 251°
2026-04-24 14:43 54.09416 -45.16838 35998 ft 482 kts 251°
2026-04-24 14:43 54.07241 -45.27635 36000 ft 482 kts 251°
2026-04-24 14:44 54.05065 -45.38380 36000 ft 482 kts 251°
2026-04-24 14:44 54.02869 -45.49164 35997 ft 481 kts 251°
2026-04-24 14:45 54.00664 -45.59933 36001 ft 481 kts 251°
2026-04-24 14:45 53.98461 -45.70633 36002 ft 481 kts 251°
2026-04-24 14:46 53.96235 -45.81387 36001 ft 481 kts 251°
2026-04-24 14:46 53.94002 -45.92122 35999 ft 481 kts 250°
2026-04-24 14:47 53.92137 -46.01038 36002 ft 481 kts 250°
2026-04-24 14:47 53.89516 -46.13504 36001 ft 481 kts 250°
2026-04-24 14:48 53.87252 -46.24215 36001 ft 481 kts 250°
2026-04-24 14:48 53.84996 -46.34826 36001 ft 481 kts 250°
2026-04-24 14:49 53.82714 -46.45509 35999 ft 481 kts 250°
2026-04-24 14:49 53.80425 -46.56164 36003 ft 481 kts 250°
2026-04-24 14:50 53.78136 -46.66769 36003 ft 481 kts 250°
2026-04-24 14:50 53.76254 -46.75437 36004 ft 481 kts 246°
2026-04-24 14:51 53.73905 -46.86025 36001 ft 481 kts 250°
2026-04-24 14:51 53.71596 -46.96665 35999 ft 481 kts 250°
2026-04-24 14:52 53.70562 -47.01413 35999 ft 481 kts 250°
2026-04-24 14:55 53.68667 -47.10047 36000 ft 481 kts 250°
2026-04-24 14:55 53.65939 -47.22363 35995 ft 481 kts 249°
2026-04-24 14:56 53.63582 -47.32933 35998 ft 481 kts 249°
2026-04-24 14:56 53.61219 -47.43478 35999 ft 481 kts 249°
2026-04-24 14:57 53.58861 -47.53946 36002 ft 481 kts 249°
2026-04-24 14:57 53.56482 -47.64461 35999 ft 481 kts 249°
2026-04-24 14:58 53.54084 -47.75001 36002 ft 481 kts 249°
2026-04-24 14:58 53.51684 -47.85503 35995 ft 481 kts 249°
2026-04-24 14:59 53.49290 -47.95925 36002 ft 481 kts 249°
2026-04-24 14:59 53.46872 -48.06398 36001 ft 481 kts 249°
2026-04-24 15:00 53.44445 -48.16859 36002 ft 481 kts 249°
2026-04-24 15:00 53.42011 -48.27300 35997 ft 480 kts 249°
2026-04-24 15:01 53.39563 -48.37747 36000 ft 480 kts 249°
2026-04-24 15:01 53.37128 -48.48095 36000 ft 480 kts 248°
2026-04-24 15:02 53.34668 -48.58495 35999 ft 480 kts 248°
2026-04-24 15:02 53.32195 -48.68898 36001 ft 480 kts 248°
2026-04-24 15:03 53.30133 -48.77535 36001 ft 480 kts 248°
2026-04-24 15:03 53.27238 -48.89602 36000 ft 480 kts 248°
2026-04-24 15:04 53.24735 -48.99982 36001 ft 480 kts 248°
2026-04-24 15:04 53.22653 -49.08579 36001 ft 480 kts 248°
2026-04-24 15:05 53.20139 -49.18916 35999 ft 480 kts 248°
2026-04-24 15:05 53.17610 -49.29263 36003 ft 480 kts 248°
2026-04-24 15:06 53.15095 -49.39509 35999 ft 480 kts 248°
2026-04-24 15:06 53.12556 -49.49799 36000 ft 480 kts 248°
2026-04-24 15:07 53.10007 -49.60086 35996 ft 480 kts 248°
2026-04-24 15:07 53.07450 -49.70358 36000 ft 480 kts 248°
2026-04-24 15:08 53.04898 -49.80556 36001 ft 480 kts 247°
2026-04-24 15:08 53.02323 -49.90804 36002 ft 480 kts 247°
2026-04-24 15:09 52.99734 -50.01061 36001 ft 480 kts 247°
2026-04-24 15:09 52.97245 -50.11272 36001 ft 480 kts 249°
2026-04-24 15:10 52.94793 -50.21598 36001 ft 480 kts 248°
2026-04-24 15:10 52.92339 -50.31840 35999 ft 480 kts 248°
2026-04-24 15:11 52.89845 -50.42129 36001 ft 480 kts 248°
2026-04-24 15:11 52.87344 -50.52371 36001 ft 480 kts 248°
2026-04-24 15:12 52.84848 -50.62547 35999 ft 480 kts 248°
2026-04-24 15:12 52.81057 -50.77915 36001 ft 480 kts 248°
2026-04-24 15:13 52.78542 -50.88053 35999 ft 479 kts 248°
2026-04-24 15:13 52.75997 -50.98263 35999 ft 479 kts 248°
2026-04-24 15:14 52.73447 -51.08452 36002 ft 479 kts 248°
2026-04-24 15:14 52.70905 -51.18556 36001 ft 479 kts 248°
2026-04-24 15:15 52.68336 -51.28727 35998 ft 479 kts 247°
2026-04-24 15:15 52.65774 -51.38818 35997 ft 479 kts 247°
2026-04-24 15:16 52.63190 -51.48953 36000 ft 479 kts 247°
2026-04-24 15:16 52.60598 -51.59074 35997 ft 479 kts 247°
2026-04-24 15:17 52.58000 -51.69172 35998 ft 479 kts 247°
2026-04-24 15:17 52.55389 -51.79276 36002 ft 479 kts 247°
2026-04-24 15:18 52.52785 -51.89307 36002 ft 479 kts 247°
2026-04-24 15:18 52.50159 -51.99378 36001 ft 479 kts 247°
2026-04-24 15:19 52.47537 -52.09390 36001 ft 479 kts 247°
2026-04-24 15:19 52.44893 -52.19442 36003 ft 479 kts 246°
2026-04-24 15:20 52.42242 -52.29474 36001 ft 479 kts 246°
2026-04-24 15:20 52.39599 -52.39435 35997 ft 479 kts 246°
2026-04-24 15:21 52.36934 -52.49432 35997 ft 479 kts 246°
2026-04-24 15:21 52.34262 -52.59415 35999 ft 479 kts 246°
2026-04-24 15:22 52.31574 -52.69412 36001 ft 479 kts 246°
2026-04-24 15:23 52.27546 -52.84309 36002 ft 479 kts 246°
2026-04-24 15:23 52.23501 -52.99177 36001 ft 479 kts 246°
2026-04-24 15:25 52.17147 -53.22337 35999 ft 479 kts 246°
2026-04-24 15:26 52.09859 -53.48623 36000 ft 479 kts 245°
2026-04-24 15:27 52.01581 -53.78125 36002 ft 478 kts 245°
2026-04-24 15:29 51.93231 -54.07509 36002 ft 478 kts 245°
2026-04-24 15:31 51.83382 -54.41707 36001 ft 478 kts 245°
2026-04-24 15:33 51.70276 -54.79025 35998 ft 478 kts 238°
2026-04-24 15:34 51.61554 -55.01790 35998 ft 478 kts 238°
2026-04-24 15:35 51.52802 -55.24468 35999 ft 478 kts 238°
2026-04-24 15:36 51.49283 -55.33528 36000 ft 478 kts 238°
2026-04-24 15:36 51.43984 -55.47112 35999 ft 478 kts 238°
2026-04-24 15:37 51.40464 -55.56098 36001 ft 478 kts 238°
2026-04-24 15:37 51.36914 -55.65127 36001 ft 478 kts 238°
2026-04-24 15:38 51.33378 -55.74088 36000 ft 479 kts 238°
2026-04-24 15:38 51.29808 -55.83107 36000 ft 478 kts 238°
2026-04-24 15:39 51.26262 -55.92031 36000 ft 478 kts 238°
2026-04-24 15:39 51.22690 -56.00991 36000 ft 478 kts 237°
2026-04-24 15:40 51.19129 -56.09892 36001 ft 478 kts 237°
2026-04-24 15:40 51.15542 -56.18828 36002 ft 478 kts 237°
2026-04-24 15:41 51.11945 -56.27759 35999 ft 478 kts 237°
2026-04-24 15:41 51.08343 -56.36669 35996 ft 478 kts 237°
2026-04-24 15:42 51.04755 -56.45516 36000 ft 478 kts 237°
2026-04-24 15:42 51.01135 -56.54408 36001 ft 478 kts 237°
2026-04-24 15:43 50.97530 -56.63238 35999 ft 479 kts 237°
2026-04-24 15:43 50.93891 -56.72118 35999 ft 479 kts 237°
2026-04-24 15:44 50.90271 -56.80923 35998 ft 478 kts 237°
2026-04-24 15:44 50.86621 -56.89770 36002 ft 478 kts 237°
2026-04-24 15:45 50.82987 -56.98546 36002 ft 480 kts 237°
2026-04-24 15:45 50.79318 -57.07380 36002 ft 479 kts 237°
2026-04-24 15:46 50.75651 -57.16178 36001 ft 477 kts 237°
2026-04-24 15:46 50.71990 -57.24934 35998 ft 477 kts 237°
2026-04-24 15:47 50.68344 -57.33623 35998 ft 477 kts 237°
2026-04-24 15:47 50.64667 -57.42357 35996 ft 477 kts 236°
2026-04-24 15:48 50.60986 -57.51072 36001 ft 477 kts 236°
2026-04-24 15:48 50.57927 -57.58291 36000 ft 477 kts 236°
2026-04-24 15:49 50.54233 -57.66983 36001 ft 477 kts 236°
2026-04-24 15:49 50.50559 -57.75601 35996 ft 477 kts 236°
2026-04-24 15:50 50.46846 -57.84280 36001 ft 477 kts 236°
2026-04-24 15:50 50.43157 -57.92875 36000 ft 477 kts 236°
2026-04-24 15:51 50.39439 -58.01509 36000 ft 477 kts 236°
2026-04-24 15:51 50.35734 -58.10087 36002 ft 477 kts 236°
2026-04-24 15:52 50.32008 -58.18683 35998 ft 477 kts 236°
2026-04-24 15:52 50.28270 -58.27278 36001 ft 477 kts 236°
2026-04-24 15:53 50.24550 -58.35804 35998 ft 477 kts 236°
2026-04-24 15:53 50.20808 -58.44355 36000 ft 477 kts 236°
2026-04-24 15:54 50.17055 -58.52901 36001 ft 477 kts 236°
2026-04-24 15:54 50.13293 -58.61442 36002 ft 476 kts 236°
2026-04-24 15:55 50.09553 -58.69905 36002 ft 476 kts 236°
2026-04-24 15:55 50.05778 -58.78417 35998 ft 476 kts 235°
2026-04-24 15:56 50.02023 -58.86859 36001 ft 476 kts 235°
2026-04-24 15:56 49.98233 -58.95352 35996 ft 476 kts 235°
2026-04-24 15:57 49.94470 -59.03759 36001 ft 476 kts 235°
2026-04-24 15:57 49.90674 -59.12211 35997 ft 476 kts 235°
2026-04-24 15:58 49.86872 -59.20650 36000 ft 476 kts 235°
2026-04-24 15:58 49.83086 -59.29027 35997 ft 476 kts 235°
2026-04-24 15:59 49.79277 -59.37429 36001 ft 476 kts 235°
2026-04-24 15:59 49.75451 -59.45840 36001 ft 476 kts 235°
2026-04-24 16:00 49.71648 -59.54177 36000 ft 476 kts 235°
2026-04-24 16:00 49.67836 -59.62505 36000 ft 476 kts 235°
2026-04-24 16:01 49.64000 -59.70860 36001 ft 476 kts 234°
2026-04-24 16:01 49.60163 -59.79190 36000 ft 476 kts 234°
2026-04-24 16:02 49.56344 -59.87456 36000 ft 476 kts 234°
2026-04-24 16:02 49.52486 -59.95781 35998 ft 476 kts 234°
2026-04-24 16:03 49.48652 -60.04027 36001 ft 476 kts 234°
2026-04-24 16:03 49.44785 -60.12319 36001 ft 476 kts 234°
2026-04-24 16:04 49.40918 -60.20585 36002 ft 476 kts 234°
2026-04-24 16:04 49.37066 -60.28794 36000 ft 476 kts 234°
2026-04-24 16:05 49.31240 -60.41162 36001 ft 476 kts 234°
2026-04-24 16:06 49.25429 -60.53443 36001 ft 476 kts 234°
2026-04-24 16:07 49.19572 -60.65761 36002 ft 476 kts 234°
2026-04-24 16:07 49.13738 -60.77977 36000 ft 475 kts 234°
2026-04-24 16:08 49.07859 -60.90229 36000 ft 475 kts 234°
2026-04-24 16:09 49.02004 -61.02378 36002 ft 475 kts 234°
2026-04-24 16:09 48.98088 -61.10470 35998 ft 475 kts 233°
2026-04-24 16:11 48.88245 -61.30710 35999 ft 475 kts 233°
2026-04-24 16:11 48.84322 -61.38732 35999 ft 475 kts 233°
2026-04-24 16:12 48.78406 -61.50787 36002 ft 475 kts 233°
2026-04-24 16:13 48.72457 -61.62854 36002 ft 475 kts 233°
2026-04-24 16:14 48.64530 -61.78852 36000 ft 475 kts 233°
2026-04-24 16:14 48.58584 -61.90789 36000 ft 475 kts 233°
2026-04-24 16:15 48.52620 -62.02708 35999 ft 475 kts 233°
2026-04-24 16:16 48.46652 -62.14584 36002 ft 475 kts 233°
2026-04-24 16:17 48.36641 -62.34387 36001 ft 475 kts 233°
2026-04-24 16:18 48.28635 -62.50122 36002 ft 475 kts 232°
2026-04-24 16:19 48.22601 -62.61920 36002 ft 475 kts 232°
2026-04-24 16:20 48.16573 -62.73655 35998 ft 475 kts 232°
2026-04-24 16:20 48.10514 -62.85401 36000 ft 475 kts 232°
2026-04-24 16:21 48.04463 -62.97078 36001 ft 474 kts 232°
2026-04-24 16:22 48.00610 -63.04489 36000 ft 474 kts 232°
2026-04-24 16:22 47.94538 -63.16126 35998 ft 474 kts 232°
2026-04-24 16:23 47.90465 -63.23903 35999 ft 474 kts 232°
2026-04-24 16:24 47.84901 -63.34493 35999 ft 474 kts 232°
2026-04-24 16:24 47.80817 -63.42240 35998 ft 474 kts 232°
2026-04-24 16:25 47.76739 -63.49952 35999 ft 474 kts 232°
2026-04-24 16:25 47.72657 -63.57653 36002 ft 474 kts 232°
2026-04-24 16:26 47.66512 -63.69201 36001 ft 474 kts 232°
2026-04-24 16:27 47.60378 -63.80681 36001 ft 474 kts 232°
2026-04-24 16:27 47.56273 -63.88336 36002 ft 474 kts 232°
2026-04-24 16:28 47.52169 -63.95968 35996 ft 474 kts 231°
2026-04-24 16:28 47.45992 -64.07415 35999 ft 474 kts 231°
2026-04-24 16:29 47.41866 -64.15035 36000 ft 474 kts 231°
2026-04-24 16:30 47.33623 -64.30195 36002 ft 474 kts 231°
2026-04-24 16:30 47.29511 -64.37725 35999 ft 474 kts 231°
2026-04-24 16:31 47.25373 -64.45282 36001 ft 474 kts 231°
2026-04-24 16:31 47.21241 -64.52809 35999 ft 474 kts 231°
2026-04-24 16:32 47.17082 -64.60364 36001 ft 474 kts 231°
2026-04-24 16:32 47.13623 -64.66629 35998 ft 474 kts 231°
2026-04-24 16:33 47.08779 -64.75382 36000 ft 474 kts 231°
2026-04-24 16:33 47.05318 -64.81618 35998 ft 474 kts 231°
2026-04-24 16:34 47.01150 -64.89110 36001 ft 474 kts 231°
2026-04-24 16:34 46.96974 -64.96594 36001 ft 474 kts 231°
2026-04-24 16:35 46.92814 -65.04033 36000 ft 474 kts 231°
2026-04-24 16:35 46.88624 -65.11503 36000 ft 474 kts 231°
2026-04-24 16:36 46.84458 -65.18910 36000 ft 474 kts 231°
2026-04-24 16:36 46.80258 -65.26356 36001 ft 474 kts 231°
2026-04-24 16:37 46.76056 -65.33784 35998 ft 474 kts 230°
2026-04-24 16:37 46.71877 -65.41155 36002 ft 474 kts 230°
2026-04-24 16:38 46.67668 -65.48558 36001 ft 474 kts 230°
2026-04-24 16:38 46.63444 -65.55967 35999 ft 474 kts 230°
2026-04-24 16:39 46.59249 -65.63307 36001 ft 474 kts 230°
2026-04-24 16:39 46.55018 -65.70688 36000 ft 474 kts 230°
2026-04-24 16:40 46.50791 -65.78043 35997 ft 474 kts 230°
2026-04-24 16:40 46.46587 -65.85340 36002 ft 474 kts 230°
2026-04-24 16:41 46.42354 -65.92665 35999 ft 474 kts 230°
2026-04-24 16:41 46.38099 -66.00011 36002 ft 474 kts 230°
2026-04-24 16:42 46.33879 -66.07274 36000 ft 474 kts 230°
2026-04-24 16:42 46.29621 -66.14586 36000 ft 474 kts 230°
2026-04-24 16:43 46.25380 -66.21849 35999 ft 474 kts 230°
2026-04-24 16:43 46.21112 -66.29140 36001 ft 474 kts 230°
2026-04-24 16:44 46.16847 -66.36405 35998 ft 474 kts 230°
2026-04-24 16:44 46.12600 -66.43624 35996 ft 474 kts 230°
2026-04-24 16:45 46.08323 -66.50871 36000 ft 474 kts 230°
2026-04-24 16:45 46.04061 -66.58075 36001 ft 473 kts 230°
2026-04-24 16:46 45.99776 -66.65297 36002 ft 473 kts 230°
2026-04-24 16:46 45.95501 -66.72488 36000 ft 473 kts 230°
2026-04-24 16:47 45.91213 -66.79679 35999 ft 473 kts 229°
2026-04-24 16:47 45.86945 -66.86818 36002 ft 474 kts 229°
2026-04-24 16:48 45.82636 -66.94006 36002 ft 473 kts 229°
2026-04-24 16:48 45.78362 -67.01118 36003 ft 473 kts 229°
2026-04-24 16:49 45.74055 -67.08268 35998 ft 473 kts 229°
2026-04-24 16:49 45.69740 -67.15412 36000 ft 473 kts 229°
2026-04-24 16:50 45.65416 -67.22552 35999 ft 473 kts 229°
2026-04-24 16:50 45.61119 -67.29629 36000 ft 473 kts 229°
2026-04-24 16:51 45.56791 -67.36741 35999 ft 473 kts 229°
2026-04-24 16:51 45.52465 -67.43831 35999 ft 473 kts 229°
2026-04-24 16:52 45.48138 -67.50902 35997 ft 473 kts 229°
2026-04-24 16:52 45.43829 -67.57928 36002 ft 473 kts 229°
2026-04-24 16:53 45.39482 -67.64998 36002 ft 473 kts 229°
2026-04-24 16:53 45.35142 -67.72039 36002 ft 473 kts 229°
2026-04-24 16:54 45.30813 -67.79011 35996 ft 473 kts 228°
2026-04-24 16:54 45.26417 -67.85982 35997 ft 473 kts 228°
2026-04-24 16:55 45.22021 -67.92929 36002 ft 473 kts 228°
2026-04-24 16:55 45.17621 -67.99881 36001 ft 473 kts 228°
2026-04-24 16:56 45.13242 -68.06788 35999 ft 473 kts 228°
2026-04-24 16:56 45.08837 -68.13723 36002 ft 473 kts 228°
2026-04-24 16:57 45.04452 -68.20606 36001 ft 473 kts 228°
2026-04-24 16:57 45.00071 -68.27467 36000 ft 466 kts 228°
2026-04-24 16:58 44.95681 -68.34325 35998 ft 472 kts 228°
2026-04-24 16:58 44.91265 -68.41207 36001 ft 473 kts 228°
2026-04-24 16:59 44.86865 -68.48046 36000 ft 472 kts 228°
2026-04-24 17:00 44.80220 -68.58344 36001 ft 472 kts 228°
2026-04-24 17:00 44.73604 -68.68559 35998 ft 472 kts 227°
2026-04-24 17:01 44.66940 -68.78810 35999 ft 472 kts 227°
2026-04-24 17:02 44.60306 -68.88979 36000 ft 472 kts 227°
2026-04-24 17:02 44.55855 -68.95780 36002 ft 472 kts 227°
2026-04-24 17:03 44.49194 -69.05927 36000 ft 472 kts 227°
2026-04-24 17:04 44.44734 -69.12701 36001 ft 472 kts 227°
2026-04-24 17:04 44.38044 -69.22831 35997 ft 472 kts 227°
2026-04-24 17:05 44.33607 -69.29528 36002 ft 472 kts 227°
2026-04-24 17:06 44.26893 -69.39633 36000 ft 472 kts 227°
2026-04-24 17:06 44.20200 -69.49671 36001 ft 472 kts 227°
2026-04-24 17:07 44.15738 -69.56344 35998 ft 472 kts 227°
2026-04-24 17:08 44.06770 -69.69705 35997 ft 472 kts 227°
2026-04-24 17:08 44.02306 -69.76333 36000 ft 471 kts 227°
2026-04-24 17:09 43.93315 -69.89632 35999 ft 471 kts 227°
2026-04-24 17:10 43.84331 -70.02862 35999 ft 471 kts 227°
2026-04-24 17:12 43.66333 -70.29173 36001 ft 471 kts 226°
2026-04-24 18:54 32.65609 -78.24349 36001 ft 460 kts 197°
2026-04-24 18:55 32.56376 -78.27619 36001 ft 460 kts 197°
2026-04-24 18:56 32.50272 -78.29777 36001 ft 460 kts 197°
2026-04-24 18:56 32.44126 -78.31947 36002 ft 460 kts 197°
2026-04-24 18:57 32.37982 -78.34113 36000 ft 460 kts 197°
2026-04-24 18:57 32.31879 -78.36250 35999 ft 460 kts 196°
2026-04-24 18:58 32.25708 -78.38279 36002 ft 460 kts 195°
2026-04-24 18:58 32.19526 -78.40273 36002 ft 460 kts 195°
2026-04-24 18:59 32.13349 -78.42280 36002 ft 460 kts 195°
2026-04-24 18:59 32.07221 -78.44282 36000 ft 459 kts 195°
2026-04-24 19:00 32.01043 -78.46302 36001 ft 459 kts 195°
2026-04-24 19:00 31.94878 -78.48314 35999 ft 459 kts 195°
2026-04-24 19:01 31.88744 -78.50313 36001 ft 459 kts 195°
2026-04-24 19:01 31.82575 -78.52320 36000 ft 459 kts 195°
2026-04-24 19:02 31.76412 -78.54322 36000 ft 459 kts 195°
2026-04-24 19:02 31.70247 -78.56323 36000 ft 459 kts 195°
2026-04-24 19:03 31.64116 -78.58309 36000 ft 459 kts 195°
2026-04-24 19:03 31.57945 -78.60306 36000 ft 459 kts 195°
2026-04-24 19:04 31.51811 -78.62305 36002 ft 459 kts 196°
2026-04-24 19:04 31.45666 -78.64413 36000 ft 459 kts 197°
2026-04-24 19:05 31.39569 -78.66525 36000 ft 459 kts 197°
2026-04-24 19:05 31.33439 -78.68632 36000 ft 459 kts 197°
2026-04-24 19:06 31.27336 -78.70718 36000 ft 458 kts 196°
2026-04-24 19:06 31.21206 -78.72807 36001 ft 458 kts 196°
2026-04-24 19:07 31.15072 -78.74895 35998 ft 458 kts 196°
2026-04-24 19:07 31.09975 -78.76628 36002 ft 458 kts 196°
2026-04-24 19:08 31.02844 -78.79050 36000 ft 458 kts 196°
2026-04-24 19:08 30.96705 -78.81132 35499 ft 463 kts 196°
2026-04-24 19:08 30.93590 -78.82188 34697 ft 467 kts 196°
2026-04-24 19:09 30.90450 -78.83251 33950 ft 470 kts 196°
2026-04-24 19:09 30.87344 -78.84302 33298 ft 470 kts 196°
2026-04-24 19:09 30.84224 -78.85357 32381 ft 460 kts 196°
2026-04-24 19:09 30.81154 -78.86394 31193 ft 459 kts 196°
2026-04-24 19:10 30.78074 -78.87434 30578 ft 459 kts 196°
2026-04-24 19:10 30.75028 -78.88526 30148 ft 454 kts 199°
2026-04-24 19:10 30.72054 -78.89733 29676 ft 450 kts 200°
2026-04-24 19:10 30.69145 -78.90946 29185 ft 447 kts 200°
2026-04-24 19:11 30.66227 -78.92167 28708 ft 443 kts 200°
2026-04-24 19:11 30.63325 -78.93382 28213 ft 440 kts 200°
2026-04-24 19:11 30.60452 -78.94585 27722 ft 436 kts 200°
2026-04-24 19:11 30.57638 -78.95762 27254 ft 433 kts 200°
2026-04-24 19:12 30.54809 -78.96945 26766 ft 430 kts 200°
2026-04-24 19:12 30.51995 -78.98121 26280 ft 427 kts 200°
2026-04-24 19:12 30.49209 -78.99285 25796 ft 424 kts 200°
2026-04-24 19:12 30.46437 -79.00442 25313 ft 420 kts 200°
2026-04-24 19:13 30.44620 -79.01200 25098 ft 415 kts 200°
2026-04-24 19:13 30.41086 -79.02673 24994 ft 397 kts 200°
2026-04-24 19:13 30.38520 -79.03743 24993 ft 384 kts 200°
2026-04-24 19:13 30.36016 -79.04786 24996 ft 382 kts 200°
2026-04-24 19:14 30.33510 -79.05829 25001 ft 381 kts 200°
2026-04-24 19:14 30.31012 -79.06868 25003 ft 381 kts 200°
2026-04-24 19:14 30.28513 -79.07907 25001 ft 381 kts 200°
2026-04-24 19:14 30.26036 -79.08937 25002 ft 381 kts 200°
2026-04-24 19:15 30.23539 -79.09977 24999 ft 381 kts 200°
2026-04-24 19:15 30.21032 -79.11014 25001 ft 381 kts 200°
2026-04-24 19:15 30.18532 -79.12050 25000 ft 381 kts 200°
2026-04-24 19:15 30.16032 -79.13085 24998 ft 381 kts 200°
2026-04-24 19:16 30.11062 -79.15143 25004 ft 381 kts 200°
2026-04-24 19:16 30.08562 -79.16178 24998 ft 381 kts 200°
2026-04-24 19:16 30.06059 -79.17213 25001 ft 381 kts 200°
2026-04-24 19:17 30.03562 -79.18246 25001 ft 381 kts 200°
2026-04-24 19:17 30.01056 -79.19282 25000 ft 381 kts 200°
2026-04-24 19:17 29.98548 -79.20318 25001 ft 382 kts 200°
2026-04-24 19:17 29.96028 -79.21359 25002 ft 396 kts 200°
2026-04-24 19:18 29.93393 -79.22447 25005 ft 409 kts 200°
2026-04-24 19:18 29.90665 -79.23572 25007 ft 422 kts 200°
2026-04-24 19:18 29.87864 -79.24727 24999 ft 434 kts 200°
2026-04-24 19:18 29.84978 -79.25916 25004 ft 445 kts 200°
2026-04-24 19:19 29.82023 -79.27132 25000 ft 455 kts 200°
2026-04-24 19:19 29.79045 -79.28357 24998 ft 464 kts 200°
2026-04-24 19:19 29.75966 -79.29623 24999 ft 473 kts 200°
2026-04-24 19:19 29.72852 -79.30903 24996 ft 477 kts 200°
2026-04-24 19:20 29.69713 -79.32191 25001 ft 477 kts 200°
2026-04-24 19:20 29.66579 -79.33477 25002 ft 477 kts 200°
2026-04-24 19:20 29.63444 -79.34763 25000 ft 477 kts 200°
2026-04-24 19:20 29.60315 -79.36045 25004 ft 477 kts 200°
2026-04-24 19:21 29.57215 -79.37315 24998 ft 477 kts 200°
2026-04-24 19:21 29.54086 -79.38595 25004 ft 477 kts 200°
2026-04-24 19:21 29.50957 -79.39875 24995 ft 477 kts 200°
2026-04-24 19:21 29.47818 -79.41158 25000 ft 477 kts 200°
2026-04-24 19:22 29.45749 -79.42003 25004 ft 477 kts 200°
2026-04-24 19:22 29.41561 -79.43714 25001 ft 477 kts 200°
2026-04-24 19:22 29.38425 -79.44993 25002 ft 477 kts 200°
2026-04-24 19:22 29.35291 -79.46271 25004 ft 477 kts 200°
2026-04-24 19:23 29.32195 -79.47532 25002 ft 477 kts 200°
2026-04-24 19:23 29.29061 -79.48808 25001 ft 477 kts 200°
2026-04-24 19:23 29.25922 -79.50085 25003 ft 477 kts 200°
2026-04-24 19:23 29.22780 -79.51363 25001 ft 477 kts 200°
2026-04-24 19:24 29.19680 -79.52622 25000 ft 477 kts 200°
2026-04-24 19:24 29.16540 -79.53898 25003 ft 477 kts 200°
2026-04-24 19:24 29.13431 -79.55253 24995 ft 477 kts 205°
2026-04-24 19:24 29.10640 -79.57285 25001 ft 476 kts 221°
2026-04-24 19:25 29.08426 -79.60100 24998 ft 476 kts 236°
2026-04-24 19:25 29.06971 -79.63428 25002 ft 475 kts 251°
2026-04-24 19:25 29.05972 -79.67039 24997 ft 476 kts 253°
2026-04-24 19:25 29.05003 -79.70674 24999 ft 476 kts 252°
2026-04-24 19:26 29.03992 -79.74282 24998 ft 476 kts 252°
2026-04-24 19:26 29.02945 -79.77879 24997 ft 476 kts 251°
2026-04-24 19:26 29.01892 -79.81420 25000 ft 476 kts 251°
2026-04-24 19:26 29.00815 -79.84999 25002 ft 476 kts 251°
2026-04-24 19:27 28.99731 -79.88576 24998 ft 476 kts 251°
2026-04-24 19:27 28.98640 -79.92158 25005 ft 476 kts 251°
2026-04-24 19:27 28.97566 -79.95675 25000 ft 460 kts 251°
2026-04-24 19:27 28.96535 -79.99071 24994 ft 442 kts 251°
2026-04-24 19:28 28.95610 -80.02369 24540 ft 435 kts 253°
2026-04-24 19:28 28.94723 -80.05638 23968 ft 433 kts 253°
2026-04-24 19:28 28.93837 -80.08888 23726 ft 422 kts 252°
2026-04-24 19:28 28.92967 -80.12053 23481 ft 412 kts 252°
2026-04-24 19:29 28.91265 -80.18207 22609 ft 402 kts 252°
2026-04-24 19:29 28.90424 -80.21234 21991 ft 397 kts 252°
2026-04-24 19:29 28.89598 -80.24200 21431 ft 396 kts 252°
2026-04-24 19:30 28.88771 -80.27169 20780 ft 385 kts 252°
2026-04-24 19:30 28.87961 -80.30071 19664 ft 381 kts 252°
2026-04-24 19:30 28.87160 -80.32938 18536 ft 377 kts 252°
2026-04-24 19:30 28.86369 -80.35767 17390 ft 373 kts 252°
2026-04-24 19:31 28.85585 -80.38568 16348 ft 367 kts 252°
2026-04-24 19:31 28.84815 -80.41317 15316 ft 360 kts 252°
2026-04-24 19:31 28.84058 -80.44017 14267 ft 354 kts 252°
2026-04-24 19:31 28.83339 -80.46651 13202 ft 348 kts 255°
2026-04-24 19:32 28.82918 -80.49352 12137 ft 343 kts 264°
2026-04-24 19:32 28.82689 -80.52052 11223 ft 344 kts 265°
2026-04-24 19:32 28.82481 -80.54761 10780 ft 339 kts 265°
2026-04-24 19:32 28.82274 -80.57420 10304 ft 334 kts 265°
2026-04-24 19:33 28.82066 -80.60025 9836 ft 331 kts 265°
2026-04-24 19:33 28.81857 -80.62604 9595 ft 320 kts 265°
2026-04-24 19:33 28.81655 -80.65080 9401 ft 308 kts 264°
2026-04-24 19:33 28.81460 -80.67469 9213 ft 297 kts 264°
2026-04-24 19:34 28.81269 -80.69788 8924 ft 290 kts 264°
2026-04-24 19:34 28.81080 -80.72072 8534 ft 287 kts 264°
2026-04-24 19:34 28.80893 -80.74332 8156 ft 285 kts 264°
2026-04-24 19:34 28.80709 -80.76554 8009 ft 278 kts 264°
2026-04-24 19:35 28.80528 -80.78728 7998 ft 279 kts 264°
2026-04-24 19:35 28.80344 -80.80935 7999 ft 279 kts 264°
2026-04-24 19:35 28.80160 -80.83143 7998 ft 279 kts 264°
2026-04-24 19:35 28.79976 -80.85338 8002 ft 279 kts 264°
2026-04-24 19:36 28.79791 -80.87542 7995 ft 279 kts 264°
2026-04-24 19:36 28.79606 -80.89744 7805 ft 278 kts 264°
2026-04-24 19:36 28.79421 -80.91943 7376 ft 279 kts 264°
2026-04-24 19:36 28.79238 -80.94115 7062 ft 276 kts 264°
2026-04-24 19:37 28.79055 -80.96288 6998 ft 275 kts 264°
2026-04-24 19:37 28.78872 -80.98466 6995 ft 275 kts 264°
2026-04-24 19:37 28.78691 -81.00613 7003 ft 275 kts 264°
2026-04-24 19:37 28.78506 -81.02786 6998 ft 275 kts 264°
2026-04-24 19:38 28.78319 -81.04951 6997 ft 275 kts 264°
2026-04-24 19:38 28.78181 -81.06416 6998 ft 275 kts 264°
2026-04-24 19:38 28.77906 -81.09281 6996 ft 275 kts 264°
2026-04-24 19:38 28.77770 -81.10716 7004 ft 275 kts 264°
2026-04-24 19:39 28.77565 -81.12886 7012 ft 275 kts 264°
2026-04-24 19:39 28.77379 -81.15059 6992 ft 275 kts 267°
2026-04-24 19:39 28.77704 -81.17154 6993 ft 264 kts 294°
2026-04-24 19:39 28.78634 -81.18881 6989 ft 248 kts 306°
2026-04-24 19:40 28.79654 -81.20397 6949 ft 235 kts 308°
2026-04-24 19:40 28.80657 -81.21848 6729 ft 232 kts 308°
2026-04-24 19:40 28.81624 -81.23319 6432 ft 231 kts 301°
2026-04-24 19:40 28.82230 -81.24979 6092 ft 231 kts 281°
2026-04-24 19:41 28.82171 -81.26790 5550 ft 232 kts 250°
2026-04-24 19:41 28.81235 -81.28234 4986 ft 230 kts 213°
2026-04-24 19:41 28.79794 -81.29011 4477 ft 228 kts 200°
2026-04-24 19:41 28.78301 -81.29621 3953 ft 227 kts 200°
2026-04-24 19:42 28.76815 -81.30227 3444 ft 226 kts 200°
2026-04-24 19:42 28.75373 -81.30829 3084 ft 219 kts 200°
2026-04-24 19:42 28.73937 -81.31442 3006 ft 222 kts 201°
2026-04-24 19:42 28.72498 -81.32049 3000 ft 220 kts 200°
2026-04-24 19:43 28.71028 -81.32552 3001 ft 220 kts 194°
2026-04-24 19:43 28.69525 -81.32863 3000 ft 220 kts 187°
2026-04-24 19:43 28.67998 -81.32959 2995 ft 220 kts 179°
2026-04-24 19:43 28.66465 -81.32906 3001 ft 220 kts 179°
2026-04-24 19:44 28.64953 -81.32875 3003 ft 220 kts 180°
2026-04-24 19:44 28.63413 -81.32861 3009 ft 224 kts 180°
2026-04-24 19:44 28.61886 -81.32853 2992 ft 213 kts 180°
2026-04-24 19:44 28.60452 -81.32846 2995 ft 199 kts 180°
2026-04-24 19:45 28.59142 -81.32839 2949 ft 186 kts 180°
2026-04-24 19:45 28.57831 -81.32826 2677 ft 187 kts 180°
2026-04-24 19:45 28.56527 -81.32810 2401 ft 188 kts 180°
2026-04-24 19:45 28.55228 -81.32798 2138 ft 188 kts 180°
2026-04-24 19:46 28.53928 -81.32785 1877 ft 181 kts 180°
2026-04-24 19:46 28.52699 -81.32773 1651 ft 180 kts 180°
2026-04-24 19:46 28.51626 -81.32762 1439 ft 176 kts 180°
2026-04-24 19:46 28.50428 -81.32750 1216 ft 172 kts 180°
2026-04-24 19:47 28.49245 -81.32738 993 ft 175 kts 180°
2026-04-24 19:47 28.48026 -81.32726 751 ft 175 kts 180°
2026-04-24 19:47 28.46801 -81.32714 523 ft 175 kts 180°
2026-04-24 19:47 28.45585 -81.32702 292 ft 174 kts 180°
2026-04-24 19:48 28.44391 -81.32690 112 ft 163 kts 180°
2026-04-24 19:48 28.43473 -81.32680 112 ft 96 kts 180°
2026-04-24 19:48 28.43087 -81.32681 110 ft 14 kts 179°
2026-04-24 19:49 28.42659 -81.32640 109 ft 32 kts 148°
2026-04-24 19:49 28.42426 -81.32228 113 ft 22 kts 120°
2026-04-24 19:50 28.42347 -81.31838 113 ft 20 kts 90°
2026-04-24 19:50 28.42347 -81.31749 111 ft 13 kts 88°
2026-04-24 19:51 28.42460 -81.31622 108 ft 9 kts 32°
2026-04-24 19:51 28.42499 -81.31570 107 ft 8 kts 73°
2026-04-24 19:52 28.42546 -81.31440 107 ft 6 kts 25°
2026-04-24 19:52 28.42569 -81.31444 107 ft 2 kts 334°
2026-04-24 19:52 28.42582 -81.31455 107 ft 0 kts 322°